Flag for Lithuania Weather past 2 weeks in Kaunas, Lithuania

Now
64 °F

Overcast.


Feels Like: 64 °F
Forecast: 51 / 66 °F
Wind: 3 mph from Southwest

Location: Kaunas

Current Time: Sep 4, 2015 at 1:48:41 PM

Latest Report: Sep 4, 2015 at 1:20 PM


Visibility: N/A

Pressure: 29.92 "Hg

Humidity: 60%

Dew point: 50 °F

Location of KaunasLocation

Historic Weather in Kaunas — Graph

°F

Kaunas temperature yesterday

Maximum temperature yesterday: 68 °F (at 4:50 PM)
Minimum temperature yesterday: 50 °F (at 4:20 AM)
Average temperature yesterday: 58 °F

Past Weeks' High & Low Weather Summary

 TemperatureHumidityPressure
High90 °F (Sep 1, 3:50 PM)100% (Aug 26, 1:00 AM)30.42 "Hg (Aug 26, 1:00 AM)
Low45 °F (Aug 21, 4:50 AM)24% (Aug 25, 5:20 PM)29.65 "Hg (Sep 1, 6:50 PM)
Average66 °F64%30.06 "Hg
* Reported Aug 20 12:20 PM — Sep 4 12:20 PM, Kaunas, Weather by CustomWeather, © 2015

Note: Actual official high and low records may vary slightly from our data, if they occured in-between our weather recording intervals... More about our weather records

Advertising

Kaunas weather history for previous 24 hours

 ConditionsComfort  
Time TempWeatherWind HumidityBarometerVisibility
12:20 PM
Fri, Sep 4
64 °FBroken clouds.6 mph64%29.92 "HgN/A
11:50 AM64 °FPartly sunny.3 mph68%29.95 "HgN/A
11:20 AM63 °FPartly sunny.5 mph73%29.95 "HgN/A
10:50 AM63 °FPartly sunny.5 mph73%29.95 "HgN/A
10:20 AM57 °FScattered clouds.1 mph100%29.95 "HgN/A
9:50 AM55 °FFog.2 mph100%29.95 "Hg2 mi
9:20 AM55 °FDrizzle. Fog.3 mph100%29.95 "Hg0 mi
8:50 AM54 °FDrizzle. Fog.2 mph100%29.95 "Hg0 mi
8:20 AM52 °FDrizzle. Fog.No wind100%29.95 "Hg0 mi
7:50 AM46 °FDrizzle. Fog.No wind100%29.95 "Hg0 mi
7:20 AM45 °FSleet. Overcast.3 mph100%29.95 "Hg2 mi
6:50 AM45 °FFog.1 mph100%29.95 "Hg0 mi
6:20 AM46 °FFog.No wind100%29.95 "Hg1 mi
5:50 AM46 °FFog.No wind100%29.95 "Hg0 mi
5:20 AM46 °FLow clouds.No wind93%29.95 "Hg4 mi
4:50 AM46 °FLow clouds.2 mph100%29.98 "Hg5 mi
4:20 AM48 °FFog.No wind100%29.98 "Hg5 mi
3:50 AM48 °FCool.No wind94%29.98 "Hg6 mi
3:20 AM48 °FCool.No wind100%29.98 "HgN/A
2:50 AM50 °FPassing clouds.No wind94%29.98 "HgN/A
2:20 AM48 °FPassing clouds.No wind100%29.98 "Hg5 mi
1:50 AM48 °FPassing clouds.No wind100%29.98 "HgN/A
1:20 AM48 °FPassing clouds.No wind94%29.98 "Hg1 mi
12:20 AM52 °FCool.No wind94%29.98 "HgN/A
11:50 PM
Thu, Sep 3
54 °FClear.No wind94%29.98 "Hg10 mi
11:20 PM54 °FClear.No wind88%29.98 "Hg10 mi
10:50 PM54 °FClear.No wind88%29.98 "Hg10 mi
10:20 PM55 °FClear.No wind88%29.98 "Hg10 mi
9:50 PM55 °FClear.No wind88%29.98 "Hg10 mi
9:20 PM57 °FClear.1 mph82%29.98 "Hg10 mi
8:50 PM57 °FSunny.2 mph77%29.98 "Hg10 mi
8:20 PM57 °FSunny.1 mph82%29.98 "Hg10 mi
7:50 PM64 °FSunny.1 mph60%29.98 "Hg10 mi
7:20 PM66 °FSunny.No wind56%29.95 "Hg10 mi
6:20 PM68 °FScattered clouds.3 mph53%29.95 "HgN/A
5:50 PM66 °FBroken clouds.6 mph56%29.95 "HgN/A
5:20 PM68 °FBroken clouds.6 mph49%29.98 "HgN/A
4:50 PM68 °FPassing clouds.6 mph53%29.98 "HgN/A
4:20 PM66 °FMostly cloudy.8 mph60%29.98 "HgN/A
3:50 PM66 °FSunny.2 mph56%29.98 "Hg10 mi
3:20 PM66 °FBroken clouds.3 mph52%29.98 "HgN/A
2:50 PM66 °FBroken clouds.3 mph56%29.98 "HgN/A
2:20 PM66 °FPassing clouds.5 mph60%29.98 "HgN/A
1:50 PM64 °FPassing clouds.7 mph68%29.98 "HgN/A
1:20 PM64 °FBroken clouds.6 mph73%29.98 "HgN/A
Weather by CustomWeather, © 2015

See weather overviewHow to use our weather pages